Latham, NY

9:44 PM EDT on September 26, 2016 (GMT -0400)
Albany International

Weather History for KALB - May, 2013

Change the Weather History Date:

Tuesday, May 21, 2013

  Actual Average Record
Temperature  
Mean Temperature 73 °F 60 °F  
Max Temperature 88 °F 71 °F 92 °F (1941)
Min Temperature 58 °F 49 °F 32 °F (1949)
Degree Days  
Heating Degree Days 0 6  
Month to date heating degree days 135 184  
Since 1 July heating degree days 6197 6577  
Cooling Degree Days 8 1  
Month to date cooling degree days 13 10  
Year to date cooling degree days 13 14  
Growing Degree Days 22 (Base 50)    
Moisture  
Dew Point 63 °F    
Average Humidity 74    
Maximum Humidity 100    
Minimum Humidity 48    
Precipitation  
Precipitation 1.31 in 0.12 in 1.76 in (1954)
Month to date precipitation 2.35 2.34  
Year to date precipitation 10.44 13.51  
Snow  
Snow 0.00 in 0.00 in T in (1895)
Month to date snowfall 0.0 0.1  
Since 1 July snowfall 51.4 60.3  
Snow Depth 0.00 in    
Sea Level Pressure  
Sea Level Pressure 29.86 in    
Wind  
Wind Speed 7 mph (SE)    
Max Wind Speed 22 mph    
Max Gust Speed 29 mph    
Visibility 10 miles    
Events Fog , Rain , Thunderstorm    
T = Trace of Precipitation, MM = Missing Value Source: NWS Daily Summary

Daily Weather History Graph

Daily Weather History Graph

Search for Another Location

Airport or City:

Trip Planner

Search our weather history database for the weather conditions in past years. The results will help you decide how hot, cold, wet, or windy it might be!

Date:

Astronomy

May. 21, 2013 Rise Set
Actual Time 5:26 AM EDT 8:17 PM EDT
Civil Twilight 4:53 AM EDT 8:50 PM EDT
Nautical Twilight 4:11 AM EDT 9:32 PM EDT
Astronomical Twilight 3:23 AM EDT 10:21 PM EDT
Moon 4:23 PM EDT (5/21) 2:58 AM EDT (5/21)
Length of Visible Light 15h 56m
Length of Day
14h 50m
Waxing Gibbous, 84% of the Moon is Illuminated
May 21
Waxing Gibbous
May 25
Full
May 31
Last Quarter
Jun 8
New
Jun 16
First Quarter

Hourly Weather History & Observations

Time (EDT) Temp. Heat Index Dew Point Humidity Pressure Visibility Wind Dir Wind Speed Gust Speed Precip Events Conditions
12:51 AM 63.0 °F - 61.0 °F 93% 29.94 in 10.0 mi Calm Calm - N/A   Partly Cloudy
1:51 AM 62.1 °F - 61.0 °F 96% 29.92 in 10.0 mi Calm Calm - N/A   Clear
2:51 AM 62.1 °F - 60.1 °F 93% 29.91 in 10.0 mi Calm Calm - N/A Fog Shallow Fog
3:51 AM 61.0 °F - 60.1 °F 97% 29.92 in 10.0 mi Calm Calm - N/A Fog Patches of Fog
4:51 AM 61.0 °F - 59.0 °F 93% 29.91 in 10.0 mi Calm Calm - N/A Fog Patches of Fog
5:51 AM 61.0 °F - 60.1 °F 97% 29.91 in 5.0 mi SSW 6.9 mph - N/A Fog Patches of Fog
6:51 AM 64.9 °F - 63.0 °F 93% 29.90 in 7.0 mi South 11.5 mph - N/A   Scattered Clouds
7:51 AM 68.0 °F - 63.0 °F 84% 29.91 in 9.0 mi South 10.4 mph - N/A   Partly Cloudy
8:51 AM 70.0 °F - 64.0 °F 81% 29.92 in 10.0 mi SSE 6.9 mph - N/A   Scattered Clouds
9:51 AM 73.9 °F - 64.9 °F 73% 29.91 in 10.0 mi South 6.9 mph - N/A   Scattered Clouds
10:51 AM 78.1 °F - 66.0 °F 66% 29.89 in 10.0 mi SSE 6.9 mph - N/A   Scattered Clouds
11:51 AM 82.0 °F 84.1 °F 66.0 °F 58% 29.88 in 10.0 mi Variable 3.5 mph - N/A   Scattered Clouds
12:51 PM 82.9 °F 85.4 °F 66.9 °F 58% 29.86 in 10.0 mi NNE 3.5 mph - N/A   Scattered Clouds
1:51 PM 87.1 °F 89.2 °F 66.0 °F 49% 29.83 in 10.0 mi Calm Calm - N/A   Scattered Clouds
2:51 PM 86.0 °F 87.6 °F 64.9 °F 49% 29.83 in 10.0 mi North 9.2 mph - N/A   Mostly Cloudy
3:06 PM 86.0 °F 87.3 °F 64.4 °F 48% 29.82 in 10.0 mi NNE 8.1 mph - N/A Thunderstorm Thunderstorm
3:48 PM 80.6 °F 81.5 °F 60.8 °F 51% 29.82 in 10.0 mi SSE 15.0 mph 19.6 mph N/A   Mostly Cloudy
3:51 PM 80.1 °F 81.1 °F 61.0 °F 52% 29.81 in 10.0 mi SSE 9.2 mph 19.6 mph N/A   Mostly Cloudy
4:51 PM 81.0 °F 81.9 °F 62.1 °F 52% 29.80 in 10.0 mi Variable 3.5 mph - N/A   Mostly Cloudy
5:51 PM 79.0 °F - 62.1 °F 56% 29.80 in 10.0 mi South 8.1 mph - N/A   Mostly Cloudy
6:51 PM 77.0 °F - 64.9 °F 66% 29.78 in 10.0 mi South 10.4 mph - N/A   Mostly Cloudy
7:51 PM 75.0 °F - 63.0 °F 66% 29.80 in 10.0 mi South 5.8 mph - N/A   Mostly Cloudy
8:51 PM 73.0 °F - 64.0 °F 73% 29.78 in 10.0 mi SSE 5.8 mph - N/A   Mostly Cloudy
9:05 PM 73.4 °F - 64.4 °F 73% 29.80 in 10.0 mi East 3.5 mph - N/A Thunderstorm Thunderstorm
9:51 PM 66.9 °F - 62.1 °F 84% 29.85 in 10.0 mi North 20.7 mph 27.6 mph 0.00 in Rain , Thunderstorm Light Thunderstorms and Rain
10:13 PM 64.4 °F - 62.6 °F 94% 29.86 in 3.0 mi South 9.2 mph 16.1 mph 0.40 in Rain , Thunderstorm Heavy Thunderstorms and Rain
10:33 PM 64.4 °F - 62.6 °F 94% 29.83 in 10.0 mi SE 6.9 mph - 0.61 in Rain , Thunderstorm Light Thunderstorms and Rain
10:51 PM 64.0 °F - 62.1 °F 93% 29.84 in 10.0 mi East 8.1 mph 19.6 mph 0.61 in Thunderstorm Thunderstorm
11:00 PM 64.4 °F - 62.6 °F 94% 29.84 in 10.0 mi East 5.8 mph - N/A   Overcast
11:26 PM 64.4 °F - 62.6 °F 94% 29.82 in 10.0 mi East 6.9 mph - N/A   Overcast
11:47 PM 64.4 °F - 62.6 °F 94% 29.84 in 10.0 mi NNW 5.8 mph - N/A Thunderstorm Thunderstorm
11:51 PM 64.9 °F - 62.1 °F 90% 29.85 in 10.0 mi NW 18.4 mph 25.3 mph N/A Thunderstorm Thunderstorm